DW9167 Weather Reports


time (UTC)temp
C
wind
direction
speed
KPH
gust
KPH
rain 1hr
cm
rain 24hr
cm
rain mn
cm
humidity
%
barometer
mb
20260506080940 22 167 1.6 4.8 0.00 0.00 0.00 92 1000.7
20260506072942 22 170 3.2 8.0 0.00 0.00 0.00 92 1001.1
20260506071941 22 158 0.0 4.8 0.00 0.00 0.00 92 1001.1
20260506070939 22 180 0.0 3.2 0.00 0.00 0.00 93 1001.1
20260506062039 22 179 1.6 8.0 0.00 0.00 0.00 94 1000.7
20260506061040 22 180 0.0 4.8 0.00 0.00 0.00 94 1000.7
20260506051139 22 180 4.8 8.0 0.00 0.00 0.00 94 1000.7
20260506050140 23 171 1.6 4.8 0.00 0.00 0.00 94 1001.1
20260506044337 22 157 0.0 0.0 0.00 0.00 0.00 94 1001.1
20260506043340 23 179 3.2 12.9 0.00 0.00 0.00 95 1000.9
20260506042438 23 177 3.2 8.0 0.00 0.00 0.00 96 1000.7
20260506041441 23 180 0.0 0.0 0.00 0.00 0.00 96 1000.7
20260506040439 23 135 3.2 8.0 0.00 0.00 0.00 96 1000.4
20260506034438 23 175 6.4 12.9 0.00 0.00 0.00 96 1000.4
20260506033537 23 157 0.0 1.6 0.00 0.00 0.00 96 1000.4
20260506032539 23 170 0.0 1.6 0.00 0.00 0.00 96 1000.0
20260506030638 23 180 0.0 0.0 0.00 0.00 0.00 96 1000.0
20260506025638 23 135 0.0 0.0 0.00 0.00 0.00 96 999.7
20260506024736 23 180 0.0 0.0 0.00 0.00 0.00 95 999.7
20260506023739 24 180 1.6 8.0 0.00 0.00 0.00 95 999.4
20260506022740 24 180 0.0 0.0 0.00 0.00 0.00 95 999.0
20260506021739 24 157 0.0 0.0 0.00 0.00 0.00 93 998.6
20260506020736 24 112 0.0 0.0 0.00 0.00 0.00 93 998.6
20260506015836 24 112 0.0 0.0 0.00 0.00 0.00 92 998.3
20260506013837 25 157 0.0 0.0 0.00 0.00 0.00 90 998.3
20260506012840 25 157 0.0 3.2 0.00 0.00 0.00 89 998.3
20260506011840 25 180 0.0 0.0 0.00 0.00 0.00 88 998.3
20260506010938 25 157 0.0 0.0 0.00 0.00 0.00 86 997.9
20260506005938 26 180 0.0 0.0 0.00 0.00 0.00 85 997.9
20260506004939 26 157 0.0 0.0 0.00 0.00 0.00 85 997.9
20260506003939 26 180 0.0 0.0 0.00 0.00 0.00 84 997.9
20260506002938 26 180 0.0 0.0 0.00 0.00 0.00 83 997.9
20260506001037 26 162 0.0 3.2 0.00 0.00 0.00 81 997.6
20260506000136 26 180 0.0 4.8 0.00 0.00 0.00 81 997.6
20260505235138 26 180 3.2 8.0 0.00 0.00 0.00 81 997.3
20260505234138 26 180 0.0 0.0 0.00 0.00 0.00 80 997.3
20260505231139 27 189 0.0 3.2 0.00 0.00 0.00 78 997.3
20260505230237 27 135 0.0 0.0 0.00 0.00 0.00 78 997.3
20260505225236 27 180 0.0 3.2 0.00 0.00 0.00 76 997.3
20260505224238 27 139 0.0 0.0 0.00 0.00 0.00 74 997.3
20260505223237 27 157 1.6 3.2 0.00 0.00 0.00 71 997.3
20260505215337 27 180 0.0 0.0 0.00 0.00 0.00 71 997.3
20260505214338 28 181 3.2 11.3 0.00 0.00 0.00 70 997.3
20260505212440 28 174 1.6 4.8 0.00 0.00 0.00 71 997.3
20260505210536 28 175 4.8 9.7 0.00 0.00 0.00 71 997.9
20260505205538 28 143 1.6 6.4 0.00 0.00 0.00 73 997.9
20260505204538 28 180 0.0 6.4 0.00 0.00 0.00 74 998.3
20260505203537 26 162 3.2 8.0 0.00 0.00 0.00 80 999.0
20260505201538 27 170 4.8 11.3 0.00 0.00 0.00 79 999.0
20260505195637 26 159 0.0 4.8 0.00 0.00 0.00 82 999.4
20260505194640 26 171 1.6 9.7 0.00 0.00 0.00 81 999.4
20260505193639 25 179 4.8 8.0 0.00 0.00 0.00 84 999.7
20260505192636 25 196 3.2 12.9 0.00 0.00 0.00 84 999.7
20260505191639 26 169 4.8 12.9 0.00 0.00 0.00 83 999.7
20260505190736 26 176 4.8 9.7 0.00 0.00 0.00 83 999.7
20260505185739 25 167 4.8 14.5 0.00 0.00 0.00 86 1000.0
20260505183838 25 162 0.0 3.2 0.00 0.00 0.00 87 1000.4
20260505182837 25 180 0.0 6.4 0.00 0.00 0.00 88 1000.4
20260505180838 24 138 3.2 6.4 0.00 0.00 0.00 92 1000.7
20260505175839 23 161 1.6 9.7 0.00 0.00 0.00 92 1001.1
20260505174838 23 137 3.2 9.7 0.00 0.00 0.00 92 1001.1
20260505173837 23 204 1.6 4.8 0.00 0.00 0.00 94 1001.4
20260505172838 23 27 0.0 8.0 0.00 0.00 0.00 94 1001.4
20260505171936 23 142 0.0 4.8 0.00 0.00 0.00 94 1001.4
20260505170939 23 164 3.2 8.0 0.00 0.00 0.00 94 1001.4
20260505165037 23 172 6.4 11.3 0.00 0.00 0.00 95 1001.4
20260505164037 22 180 0.0 0.0 0.00 0.00 0.00 97 1001.4
20260505163136 22 180 1.6 8.0 0.00 0.00 0.00 97 1001.4
20260505162137 21 172 4.8 9.7 0.00 0.00 0.00 97 1001.7
20260505161236 21 104 0.0 8.0 0.00 0.00 0.00 97 1002.1
20260505160238 21 165 4.8 8.0 0.00 0.00 0.00 97 1002.1
20260505153337 21 268 0.0 0.0 0.00 0.00 0.00 96 1002.1
20260505152338 21 176 3.2 8.0 0.00 0.00 0.00 96 1001.9
20260505150337 21 135 0.0 3.2 0.00 0.00 0.00 94 1001.7
20260505140537 20 167 3.2 8.0 0.00 0.00 0.00 92 1001.4
20260505123739 20 170 4.8 8.0 0.00 0.00 0.00 89 1000.7
20260505121738 20 174 4.8 9.7 0.00 0.00 0.00 90 1000.7
20260505120837 20 164 4.8 9.7 0.00 0.00 0.00 91 1000.7
20260505115838 20 157 1.6 4.8 0.00 0.00 0.00 92 1000.0
20260505114837 20 169 1.6 6.4 0.00 0.00 0.00 93 1000.0
20260505113838 20 144 3.2 8.0 0.00 0.00 0.00 94 1000.0
20260505111937 19 180 0.0 0.0 0.00 0.00 0.00 94 1000.0
20260505110938 19 161 3.2 12.9 0.00 0.00 0.00 94 1000.4
20260505102036 20 178 4.8 9.7 0.00 0.00 0.00 95 1000.7
20260505101039 20 180 3.2 9.7 0.00 0.00 0.00 95 1000.7
20260505094036 20 159 3.2 6.4 0.00 0.00 0.00 96 1000.7
20260505093038 20 180 0.0 1.6 0.00 0.00 0.00 96 1001.1
20260505092039 20 157 1.6 8.0 0.00 0.00 0.00 96 1000.7
20260505091037 20 146 4.8 9.7 0.00 0.00 0.00 96 1001.1
20260505090038 20 162 3.2 8.0 0.00 0.00 0.00 96 1000.7
20260505085037 20 166 4.8 14.5 0.00 0.00 0.00 96 1000.7
20260505083038 20 171 4.8 11.3 0.00 0.00 0.00 96 1001.4
20260505082037 20 136 1.6 8.0 0.00 0.00 0.00 96 1001.1